Вернуться в каталог

STARLINK-36150

АктивенСвязьVLEO
NORAD 67031·PAYLOAD·🇺🇸 United States

Запущен Dec 11, 2025 с Cape Canaveral Space Force Station

Loading…

Ближайшие Пролёты (ближайшие 24 часа)

TLE

СвежийSource: CelesTrak SupGP

Эпоха: Sep 15, 2026, 02:52 UTC

1 67031C 25294B   26258.11993056 -.00021870  00000+0 -79203-3 0  2587
2 67031  43.0008  47.8427 0001442 268.8973 145.3592 15.27593822    14

Отслеживайте STARLINK-36150 в реальном времени с AllMySat

Download on the App Store